Theta_e
319 318 318 320 320 321 322 323 323 322 322 323 324 327 329 329 328 327 325 324 324 326 329 331 333 333 333 333 331 327 320 318 320 320 321 320 317 319 321 320 320 316 316 316 317 322 321 322 324 324 326 326 329 329 326 324 323 324 327 327 326 327 326 324 323 322 321 319 320 321 322 324 324 323 322 322 322 324 325 325 329 329 328 331 336 338 336 336
319 319 318 319 320 320 321 322 322 322 321 321 322 324 328 329 328 327 325 325 325 328 330 331 334 332 332 331 328 326 322 320 322 323 321 321 320 319 321 320 318 316 316 317 320 322 323 326 326 326 328 329 330 329 328 325 323 326 327 328 328 328 324 320 319 318 319 319 318 318 320 322 324 323 322 323 323 324 325 326 329 330 329 329 335 338 336 336
318 319 318 318 319 320 320 321 322 323 321 321 323 323 326 329 329 328 327 327 326 330 332 333 333 330 331 330 327 327 324 323 325 325 324 323 321 320 320 319 317 316 317 320 322 321 323 326 326 327 329 331 331 329 330 327 326 328 327 329 330 325 321 318 317 316 316 317 318 318 317 319 322 323 322 322 323 324 324 326 327 329 330 330 334 337 336 336
317 319 319 318 319 319 318 319 320 322 321 320 322 323 325 327 328 328 327 329 328 330 331 332 331 329 329 327 325 325 324 326 328 327 326 325 323 321 321 319 317 317 318 323 323 321 323 326 326 327 330 332 331 331 331 328 329 329 325 329 328 321 320 317 315 315 315 315 317 317 317 317 319 321 321 323 323 324 324 324 326 327 329 329 333 337 336 336
315 317 318 318 318 317 316 318 320 321 321 320 321 322 324 325 327 328 328 329 329 330 330 330 329 327 325 324 324 324 326 331 331 327 328 327 323 322 320 318 318 318 320 325 325 322 323 325 326 327 329 332 333 333 332 327 328 328 326 329 325 319 319 315 313 314 314 314 316 316 317 317 317 318 320 321 323 323 322 322 323 323 328 329 331 337 336 335
315 316 317 318 318 317 317 318 319 318 319 320 321 320 322 324 325 328 329 329 329 330 329 329 328 324 323 325 325 324 329 334 330 328 330 327 324 321 319 319 319 318 321 326 326 323 325 327 328 328 328 331 333 333 333 329 328 329 328 328 323 319 317 314 313 313 313 314 315 316 315 315 316 317 318 320 320 321 320 321 321 320 328 329 331 337 336 335
315 316 316 318 318 318 317 318 318 316 315 318 320 319 320 322 323 326 329 329 328 328 328 329 327 324 323 324 324 324 328 330 325 327 330 328 325 321 319 319 319 318 323 326 325 324 327 328 329 329 329 332 334 334 336 330 327 329 330 328 323 320 316 315 314 313 313 314 315 315 314 314 316 316 318 319 318 320 320 319 320 319 327 330 331 337 336 335
314 315 315 317 317 317 317 317 318 317 314 315 317 318 319 320 319 322 327 329 328 326 327 328 326 324 322 322 323 324 327 327 323 324 328 328 324 320 320 321 320 319 323 326 324 324 326 327 329 331 332 334 335 336 334 330 328 329 331 327 321 319 316 314 316 315 313 314 315 314 314 315 315 316 316 318 318 318 319 319 320 319 325 331 332 336 337 335
313 315 315 316 316 317 317 316 317 318 316 314 315 317 319 319 318 320 325 328 328 327 327 328 327 325 322 322 323 325 328 326 321 322 325 325 322 321 321 321 321 321 324 325 324 325 327 328 330 332 335 335 335 336 333 332 332 329 332 328 319 319 316 315 317 315 314 316 316 316 316 317 316 316 316 316 316 316 318 320 321 320 324 332 333 335 336 335
314 315 315 316 317 317 317 316 316 318 317 315 314 315 319 321 319 320 323 325 327 329 328 327 327 325 322 322 325 328 328 324 322 321 323 323 321 321 321 321 321 322 325 325 325 326 327 329 331 333 334 334 335 336 334 334 333 329 331 327 319 320 319 317 318 316 317 319 318 318 319 319 317 316 317 318 317 317 320 321 321 321 323 330 332 333 333 334
314 315 316 316 316 317 318 317 316 318 318 315 314 314 317 322 322 321 322 323 325 327 329 327 325 323 322 324 327 329 327 325 324 320 321 322 321 322 321 321 321 323 325 325 325 325 326 328 330 332 332 332 334 334 333 332 330 327 327 325 322 322 321 319 319 318 319 320 319 318 319 320 318 316 316 318 318 319 321 320 321 322 322 327 330 332 332 332
314 314 315 315 315 316 317 317 316 316 316 314 313 313 314 319 322 322 322 323 323 325 327 327 326 323 323 325 328 328 326 326 325 322 322 322 320 322 321 321 321 323 324 325 324 324 324 326 327 330 331 331 332 333 332 329 328 328 326 327 327 325 323 322 320 319 320 319 318 319 324 326 324 320 317 317 318 319 320 319 321 323 322 325 327 331 333 331
314 314 314 314 315 316 317 318 316 315 315 315 314 312 313 315 320 323 323 323 321 323 326 326 325 323 324 327 326 326 326 326 325 324 324 322 321 323 321 320 321 322 323 324 325 324 324 325 327 329 330 331 331 330 330 328 328 329 327 330 333 332 330 326 323 322 321 320 319 324 331 332 330 328 322 318 319 318 319 319 321 324 323 324 325 329 333 332
313 314 314 314 314 315 316 317 317 316 315 317 315 312 312 314 318 322 322 323 321 321 325 326 324 322 324 326 323 325 326 326 326 325 324 323 322 323 321 320 321 322 323 324 324 324 324 325 327 329 329 330 328 327 329 329 329 329 330 332 335 337 335 331 327 325 324 322 320 327 332 333 331 330 323 319 320 319 319 319 320 324 324 324 326 329 332 333
312 313 313 313 314 315 316 316 317 317 316 317 315 313 312 313 317 321 321 322 322 321 323 325 323 321 325 325 322 323 325 325 326 325 325 324 323 323 322 321 322 322 323 324 324 324 324 326 329 330 328 327 326 329 330 331 329 329 333 335 336 337 335 332 329 328 327 322 320 327 332 332 331 330 326 321 319 319 319 319 319 321 323 324 327 329 332 333
312 313 313 313 314 314 315 315 316 316 316 317 315 313 312 312 315 319 321 321 321 321 322 324 322 322 326 327 323 323 324 325 325 325 324 323 322 323 323 322 322 322 323 324 323 323 324 327 330 329 327 327 328 331 332 332 332 332 334 334 335 336 334 330 330 330 327 321 322 328 332 332 330 329 329 323 318 318 318 319 319 320 322 324 328 330 332 333
312 312 313 313 313 314 314 314 315 316 316 317 317 315 314 314 314 317 320 321 322 321 321 324 322 323 326 323 322 324 324 324 324 324 324 323 323 323 323 323 323 324 325 325 324 325 326 328 331 330 327 328 329 331 334 335 334 334 333 332 333 335 334 330 327 330 326 321 323 326 330 331 329 327 325 320 318 319 319 319 320 320 321 324 328 330 331 332
312 312 312 312 312 313 313 313 314 315 316 316 316 317 316 315 314 316 319 319 321 321 322 324 321 324 327 320 321 324 323 324 323 323 323 323 323 323 324 324 324 325 326 326 325 326 328 328 330 331 330 329 330 331 334 335 331 331 332 332 332 331 333 331 326 326 323 322 326 326 326 327 326 326 324 319 317 317 318 318 319 319 319 322 327 329 329 330
312 312 312 312 312 313 313 313 314 315 316 315 316 316 315 315 315 315 316 317 320 323 324 324 322 326 327 322 322 323 322 323 322 323 323 323 323 323 323 324 325 326 326 327 326 325 327 328 329 331 331 329 329 330 332 332 329 329 331 331 332 330 331 332 325 323 323 323 326 326 325 325 324 324 324 322 320 318 319 319 318 319 319 319 324 327 328 329
312 312 312 312 312 312 313 313 313 314 315 316 315 314 314 315 316 316 317 316 319 321 320 320 322 325 324 322 322 322 322 323 322 323 323 323 324 324 324 325 326 326 327 328 327 325 325 329 330 330 330 328 328 329 329 329 328 329 330 331 332 329 330 330 322 319 321 323 324 325 326 326 326 325 325 325 324 322 323 322 321 321 320 319 320 324 326 328
311 311 311 312 312 312 313 313 314 314 315 315 314 314 315 314 315 317 317 316 316 316 316 317 319 322 322 322 322 322 323 323 322 323 324 324 324 325 325 325 327 328 328 327 326 325 326 330 330 328 328 327 327 328 327 327 327 328 330 331 332 330 331 329 320 317 320 324 326 327 328 328 328 328 328 327 326 325 324 323 322 322 322 321 319 320 323 324
311 311 311 311 312 312 312 312 313 314 314 314 313 314 315 315 315 315 316 318 317 315 315 316 317 319 322 322 322 322 323 323 323 323 323 324 324 326 326 325 328 329 327 326 327 327 329 330 328 326 327 327 327 326 326 327 328 330 331 333 333 332 331 327 319 319 321 324 329 329 330 329 328 328 328 327 326 326 325 324 322 320 320 321 320 319 320 322
311 310 310 310 311 311 311 311 312 313 313 313 314 315 315 316 316 312 315 320 319 316 315 316 317 318 322 323 322 322 323 323 323 323 321 322 324 325 325 326 327 328 327 327 328 329 330 329 326 325 325 327 328 326 327 328 328 331 332 333 332 332 333 327 320 320 320 322 326 326 326 325 324 325 325 325 325 323 325 325 323 321 320 320 321 321 320 320
310 310 309 309 309 310 310 310 310 312 312 312 313 313 314 315 314 312 316 319 318 318 317 317 318 318 321 322 321 322 323 322 322 322 321 321 324 324 324 326 327 328 327 326 327 328 329 328 327 326 325 326 327 327 328 329 329 332 332 333 331 330 332 329 323 321 321 321 321 321 326 326 323 324 324 325 326 324 324 324 325 325 321 321 323 324 323 321
310 309 308 307 307 308 309 309 310 311 312 312 312 312 313 314 314 313 317 318 316 318 318 317 318 318 320 321 321 322 324 322 321 321 320 320 323 324 324 324 326 327 327 326 327 327 326 326 326 326 325 325 326 326 328 330 331 332 332 332 330 328 330 330 328 327 329 329 322 320 331 333 326 325 326 326 326 325 325 325 325 326 324 322 322 323 324 323
310 309 307 306 306 306 307 309 309 310 311 311 311 312 313 313 313 312 315 317 316 317 317 316 319 320 319 321 321 322 325 325 322 320 320 320 321 324 324 324 325 326 326 325 326 326 324 324 324 325 325 327 327 327 328 330 331 331 331 331 329 329 332 331 331 332 334 333 323 320 331 334 328 325 326 327 328 327 326 326 326 326 325 323 322 321 321 321
309 308 307 306 306 306 306 308 309 310 311 311 311 312 312 312 313 310 313 315 314 316 316 316 318 319 319 321 321 322 326 325 321 320 320 320 322 323 324 325 325 325 324 324 326 326 323 324 326 326 326 327 328 328 328 328 330 331 331 330 329 330 333 331 329 332 334 331 326 323 328 332 331 329 327 327 328 328 327 327 326 324 323 322 321 321 320 320
308 307 307 306 306 306 307 308 308 310 310 310 311 312 311 311 311 309 311 313 315 316 317 318 318 318 319 322 321 323 324 322 322 322 318 318 321 323 324 324 324 325 322 323 327 327 324 325 327 327 328 328 328 327 328 327 328 330 330 331 330 329 331 330 330 332 331 331 330 328 328 333 334 329 327 328 327 327 327 326 326 325 323 321 320 320 320 321
307 306 307 306 306 306 308 308 308 309 308 309 311 312 311 309 310 312 311 312 317 318 318 319 319 319 321 322 322 322 322 322 324 322 318 318 319 321 324 323 321 324 323 322 327 327 324 324 326 327 328 328 327 327 328 327 327 329 330 330 329 328 328 329 330 329 328 330 331 330 329 334 334 329 326 329 328 328 329 327 328 328 327 324 321 321 322 322
307 307 307 306 306 307 309 308 308 308 308 309 311 311 310 308 310 313 309 311 318 319 318 319 319 321 323 323 323 322 322 322 322 320 320 321 321 322 324 324 323 326 326 325 325 324 322 322 324 326 327 326 325 327 329 328 327 328 329 328 328 327 325 326 327 326 330 332 331 330 329 331 335 332 327 327 327 327 328 327 327 328 327 326 325 325 323 323
307 306 306 305 306 307 308 308 308 308 309 311 312 310 309 308 309 311 310 312 318 320 319 319 319 322 323 324 324 323 322 321 320 320 321 321 323 324 326 327 328 328 327 327 326 323 323 324 325 325 325 326 327 328 329 327 326 328 328 327 327 326 325 327 326 326 332 334 329 328 329 330 334 333 327 326 325 324 325 324 324 325 325 324 325 325 321 321
306 305 305 305 306 307 307 307 308 309 309 310 311 309 309 309 309 310 310 312 315 318 320 320 321 323 322 323 324 323 324 322 321 322 322 322 324 324 327 329 329 328 328 328 327 326 326 326 325 324 323 324 328 328 326 325 325 328 327 327 330 330 328 330 329 328 332 330 323 325 329 330 331 328 325 326 324 323 324 323 323 324 321 320 321 322 321 320
306 305 305 306 306 306 306 307 307 309 309 308 309 309 309 309 309 310 310 311 313 317 320 320 321 322 321 322 323 322 323 322 321 322 321 323 324 324 326 327 327 330 330 327 326 326 326 325 323 323 323 323 326 327 325 325 325 326 327 329 332 331 330 331 330 330 332 327 320 321 327 329 328 324 323 324 322 323 324 324 326 324 320 320 319 320 321 322
306 305 305 306 306 306 306 307 308 308 308 307 309 310 309 308 309 309 310 311 315 318 320 320 322 322 322 322 322 322 322 322 322 322 322 323 324 325 326 326 326 328 329 327 325 326 328 328 323 324 326 325 325 326 325 324 325 326 327 328 330 331 331 331 330 332 333 326 319 321 328 332 330 325 321 320 320 320 320 322 324 323 321 321 320 319 320 320
306 305 305 305 305 305 306 307 308 308 307 307 308 309 308 307 308 308 309 313 317 318 319 320 321 322 322 322 321 321 321 321 322 322 323 324 324 325 326 326 326 325 327 327 325 325 328 327 323 323 325 323 325 326 322 323 325 326 327 328 330 331 330 329 329 328 329 327 323 324 328 329 325 322 320 320 321 319 318 319 320 322 322 322 321 321 322 321
305 305 304 305 305 305 306 306 306 306 307 308 309 309 308 307 308 307 307 312 317 318 318 320 321 321 322 321 320 321 321 320 321 322 323 323 324 325 325 325 324 324 325 326 325 325 326 325 321 321 322 321 325 326 320 323 326 326 329 329 328 329 327 329 329 324 324 329 329 326 326 325 321 322 322 323 324 322 319 318 318 321 323 322 322 322 322 321
304 304 304 305 305 305 306 306 305 305 307 308 309 309 308 308 309 308 307 310 316 317 317 319 322 321 321 321 319 320 321 320 320 322 323 323 324 324 323 324 323 323 324 324 324 324 325 324 321 320 323 322 323 325 322 323 325 326 329 327 326 329 327 327 329 327 326 329 329 327 327 326 326 328 325 322 324 322 320 319 319 320 321 322 322 321 321 321
304 304 304 304 305 305 305 305 305 305 306 307 307 307 308 308 309 309 310 310 313 316 316 317 320 320 320 320 320 320 320 320 320 321 322 322 323 323 323 324 323 322 323 322 324 323 323 324 320 318 322 322 321 324 324 324 323 324 327 325 326 331 330 327 328 331 330 328 329 331 329 327 328 326 323 324 324 322 320 321 320 318 319 321 322 321 320 320
303 303 303 303 304 304 304 304 305 305 305 306 307 307 307 307 307 309 310 310 311 314 315 316 319 319 319 319 320 320 320 321 320 319 320 322 322 323 323 323 323 322 322 322 324 323 322 325 321 317 318 320 322 324 325 324 322 322 325 325 325 328 330 328 327 330 332 329 330 332 331 331 329 322 320 324 325 322 322 323 319 316 317 319 320 321 322 322
302 302 303 303 303 304 304 304 304 305 304 304 305 306 306 307 307 308 309 310 311 312 312 314 317 319 319 319 319 319 320 321 320 319 320 321 322 322 321 322 323 322 321 322 324 322 321 324 323 318 317 320 324 324 325 324 321 322 325 326 325 325 327 328 327 328 330 330 332 332 330 332 328 321 320 321 322 322 322 322 319 317 317 318 319 323 325 324
302 302 302 303 303 304 304 303 303 304 304 304 304 304 305 306 307 308 308 310 313 314 312 312 315 318 320 320 318 317 317 318 319 320 320 320 321 323 321 321 322 321 322 325 325 323 322 323 322 319 319 321 323 321 322 322 321 321 323 324 324 324 325 328 328 327 326 329 330 328 329 330 325 320 322 320 322 324 323 322 320 317 317 317 319 323 326 327
301 301 302 303 303 303 304 303 303 304 303 303 304 304 305 305 306 308 309 309 311 314 313 312 313 317 319 321 320 318 317 316 317 319 321 321 321 322 321 319 320 321 323 325 324 322 321 321 320 319 319 320 320 318 319 322 321 321 322 323 324 323 323 325 327 328 328 327 325 324 327 330 325 321 323 322 323 324 324 323 321 318 318 318 320 323 326 328
301 301 302 303 302 303 303 303 303 303 303 303 303 303 304 305 305 306 308 309 309 312 313 312 313 314 316 319 320 319 318 317 316 317 319 321 320 320 320 320 320 322 322 324 324 323 321 320 318 318 318 317 316 316 317 318 319 322 322 323 324 323 322 323 324 326 328 328 326 326 328 327 323 324 324 322 321 321 321 322 321 320 319 320 322 323 325 327
301 301 302 303 302 302 303 303 303 303 303 303 303 303 304 304 305 305 307 308 309 310 311 311 312 313 315 318 320 320 320 320 318 317 319 321 321 320 321 320 321 322 322 323 324 322 322 320 318 319 319 319 318 318 319 318 318 321 321 321 323 323 323 324 322 322 326 328 328 328 328 325 321 323 321 318 318 318 317 318 320 321 321 321 322 323 326 327
300 300 301 302 302 303 302 302 302 302 303 303 303 303 303 304 304 305 306 307 308 309 310 311 312 312 314 317 319 319 320 321 321 319 319 321 321 322 322 321 321 321 322 323 322 321 322 321 319 322 323 322 321 320 321 320 319 320 321 321 322 323 324 324 323 323 326 327 326 327 327 322 317 317 316 316 316 315 314 316 318 320 321 321 321 323 325 326
300 300 301 301 301 301 302 303 302 302 302 303 303 303 303 303 304 305 306 306 307 309 310 311 312 312 313 316 317 318 319 320 322 321 320 321 321 321 322 321 320 321 322 323 321 320 321 320 320 322 323 322 322 322 321 320 320 320 321 321 321 323 324 323 324 324 324 325 325 324 324 321 318 316 316 316 315 314 314 315 316 316 319 321 322 323 326 326
300 299 300 302 301 300 301 302 303 302 301 302 303 303 303 303 304 305 306 305 306 308 309 310 312 312 312 314 315 318 319 319 321 320 320 321 320 320 321 321 321 321 322 322 321 321 321 320 320 321 322 322 322 322 320 320 321 320 320 321 321 323 324 324 324 323 323 325 325 321 321 322 320 317 316 316 315 315 315 314 314 315 316 320 323 324 325 326
300 299 300 301 301 301 301 302 302 303 302 302 302 302 303 303 303 304 306 306 305 307 309 311 312 311 311 313 314 316 318 319 319 319 319 318 318 320 322 322 321 321 322 322 321 321 321 320 320 321 322 322 322 322 320 320 321 320 319 321 321 322 323 323 323 322 322 324 323 321 323 323 319 318 317 316 316 315 314 314 313 314 315 318 321 322 324 325
300 300 300 300 300 300 301 302 302 302 303 302 302 302 303 303 303 303 305 306 307 306 307 310 311 311 310 311 313 314 316 318 319 318 317 318 318 320 323 323 321 320 321 320 319 320 320 320 321 322 321 321 322 323 321 320 320 320 319 320 321 321 322 322 322 321 321 322 320 322 327 324 320 319 317 317 318 316 316 316 315 316 318 319 319 319 321 322
299 299 300 300 300 300 300 301 301 302 302 302 303 303 303 303 303 303 303 305 307 307 307 308 310 311 311 311 312 313 314 316 317 317 317 318 319 320 322 324 322 319 320 319 318 320 321 321 321 321 321 321 322 322 322 320 320 321 320 320 320 321 321 321 322 321 322 322 319 321 324 323 321 321 318 318 319 318 319 319 317 317 319 319 319 319 319 320
299 299 300 300 299 299 301 301 300 300 301 302 302 303 304 304 304 304 303 304 306 308 308 307 308 311 312 312 312 313 313 314 315 315 316 317 318 319 321 322 321 319 319 318 317 319 320 321 321 321 321 321 320 321 322 321 320 320 320 320 320 320 321 321 321 321 321 321 321 321 321 321 321 321 320 319 319 318 319 319 317 318 318 318 319 320 321 322
299 299 300 301 300 299 300 301 300 301 301 301 301 302 303 304 305 305 305 305 305 307 308 309 309 310 312 312 313 312 313 313 313 313 314 315 316 319 321 320 319 318 318 318 318 318 319 320 320 319 322 322 320 320 321 320 320 320 320 320 319 319 320 320 320 320 320 320 321 321 320 321 322 322 321 321 321 319 318 319 318 317 317 318 320 321 321 321
Wind_Speed
23 26 26 25 26 23 22 22 22 24 26 27 29 26 24 27 28 27 28 28 28 28 28 28 29 28 27 26 24 21 20 18 13 15 16 14 18 17 16 19 16 15 15 14 14 10 9 10 9 8 6 3 2 2 2 1 0 1 1 2 2 2 3 3 4 3 3 5 4 3 0 1 4 3 2 2 2 2 3 3 4 5 7 7 11 20 23 23
23 25 27 26 26 24 21 19 19 20 23 24 26 27 24 25 27 28 28 28 28 28 28 29 30 29 28 27 24 21 19 16 13 15 19 18 18 20 19 18 17 17 17 15 14 12 9 7 8 7 5 2 2 2 3 2 1 2 1 3 3 2 1 3 5 4 4 5 4 5 3 3 2 3 2 1 4 5 4 4 5 5 7 6 11 20 21 21
22 24 26 27 25 23 19 18 17 16 20 21 20 25 24 23 25 27 27 27 27 27 28 30 31 30 28 27 23 21 16 11 12 15 21 21 19 21 20 19 19 20 19 14 13 14 10 8 9 7 3 2 3 3 3 2 3 2 1 3 2 3 2 3 5 5 5 4 4 5 3 2 1 2 2 2 4 5 6 5 6 7 8 7 10 18 19 19
22 23 25 26 24 21 20 19 18 16 18 19 17 19 21 22 23 26 27 26 26 27 29 30 31 30 29 27 23 20 14 6 9 15 22 24 22 21 21 21 21 21 20 12 10 14 12 10 9 6 4 3 3 4 3 3 3 2 2 4 1 2 2 4 6 6 5 4 4 3 1 0 1 1 1 3 4 3 5 5 7 8 11 12 10 16 19 18
24 23 23 26 24 21 21 21 20 18 16 17 17 15 16 18 21 25 26 26 25 26 28 30 30 30 30 27 24 21 12 3 6 19 28 27 27 24 22 24 23 23 19 9 8 12 11 9 8 5 3 3 3 3 3 5 4 2 3 5 1 1 1 4 5 5 4 2 1 0 1 1 2 1 3 4 4 2 0 1 2 1 9 15 13 16 17 16
24 22 21 22 23 21 22 22 20 19 16 15 16 15 15 15 16 21 25 26 25 26 27 28 30 31 30 27 25 23 13 4 5 19 33 32 30 27 25 25 24 24 18 9 8 10 8 7 6 5 3 4 5 4 5 6 5 2 4 5 4 2 1 3 4 2 2 1 2 1 1 2 2 3 3 5 6 2 3 5 5 7 9 19 16 16 15 13
23 22 20 21 22 22 22 21 20 20 18 15 14 14 18 16 12 15 22 26 25 27 27 28 31 31 30 28 24 18 12 6 4 12 31 36 33 29 28 26 25 24 16 10 11 10 7 8 6 5 5 4 5 6 5 4 4 3 4 4 5 3 3 3 3 2 0 1 1 2 1 2 4 3 1 2 5 4 2 5 6 5 10 18 15 14 14 14
22 21 21 21 22 23 22 21 19 20 22 21 17 13 17 18 15 13 16 24 26 27 28 29 32 30 30 28 18 9 10 8 6 11 28 36 35 31 29 26 25 24 16 10 12 11 7 8 8 5 5 5 5 5 4 4 4 5 5 2 4 3 4 5 4 3 2 2 1 0 2 5 5 1 1 4 6 6 3 4 6 3 7 12 11 12 12 13
22 21 20 20 20 21 22 21 20 19 22 24 21 15 12 16 18 15 13 21 26 29 29 30 31 29 30 23 11 7 11 11 8 13 27 33 35 33 28 26 25 23 17 9 10 12 8 7 8 6 4 4 5 4 5 4 3 5 8 3 4 4 5 5 4 4 3 2 2 2 5 5 2 2 2 8 8 8 5 5 6 4 5 8 9 11 11 11
23 21 20 20 19 19 18 20 20 17 18 21 22 18 12 13 16 17 13 14 23 30 29 30 31 33 30 18 9 8 12 15 9 11 26 33 34 32 26 26 27 24 16 9 7 7 5 2 3 3 2 1 4 4 5 4 2 2 6 3 4 4 4 5 4 5 4 2 3 4 6 4 1 1 4 4 3 5 5 5 5 5 6 7 7 9 12 12
24 22 20 21 20 19 18 18 19 17 18 19 21 21 15 11 13 18 16 11 15 25 30 30 30 33 27 14 9 7 11 17 11 10 25 35 36 32 25 26 27 24 17 10 5 4 3 2 7 3 1 1 4 5 4 3 1 1 1 2 2 4 3 5 6 5 4 2 5 4 5 6 2 3 5 3 2 5 6 5 6 6 6 7 7 7 9 11
24 23 22 22 21 20 19 18 19 20 19 19 22 24 18 12 10 15 17 13 8 14 28 33 31 33 24 9 7 7 12 15 12 14 26 35 35 29 25 25 24 22 19 11 5 4 4 4 9 7 5 2 4 4 3 4 3 1 0 2 5 6 6 8 8 7 6 3 4 2 4 7 7 8 10 9 6 6 6 6 7 7 6 6 7 7 7 10
22 23 23 23 22 22 20 19 20 21 21 21 25 27 24 16 11 12 14 12 8 9 24 35 35 36 22 5 8 11 13 13 14 19 25 30 29 24 23 22 19 18 17 14 8 4 4 5 13 10 6 2 2 1 0 3 3 3 3 4 4 5 7 10 10 8 8 5 6 5 2 5 6 8 10 11 9 7 6 6 7 7 6 6 6 6 6 9
22 22 23 24 23 22 20 19 20 21 21 20 22 27 29 22 13 13 12 11 9 7 18 35 38 30 15 4 7 14 15 15 18 23 25 28 27 23 22 20 16 15 13 14 10 6 6 6 16 11 5 1 1 1 0 2 3 3 4 4 3 4 4 7 12 10 8 6 8 6 3 5 5 6 4 7 7 6 6 6 6 6 6 6 6 7 6 8
22 21 23 24 24 22 19 19 19 19 19 18 20 24 29 27 17 12 11 11 10 7 14 33 37 21 7 2 4 15 17 15 20 26 25 30 30 22 21 21 16 14 12 12 11 10 7 7 12 6 2 3 2 2 2 2 3 3 4 3 4 4 2 3 9 12 10 4 7 7 3 6 7 7 5 3 6 6 6 6 6 7 7 7 6 7 6 7
22 21 22 24 24 21 19 19 18 19 19 20 23 25 28 30 22 13 10 9 9 10 12 22 30 19 6 3 7 14 12 10 20 25 25 31 32 25 25 24 17 14 12 10 11 11 9 6 4 4 2 4 4 4 3 3 3 3 4 3 5 7 4 2 5 10 10 6 8 9 4 4 3 6 6 3 6 6 6 6 6 6 7 7 6 6 6 6
22 22 22 24 24 21 20 20 19 20 21 21 20 21 25 28 26 17 9 7 7 10 11 11 19 13 3 4 11 13 10 12 21 24 22 25 29 30 27 20 14 14 11 9 11 10 10 6 0 2 2 3 5 5 5 5 4 4 5 5 5 6 5 4 3 6 9 7 8 10 8 6 3 4 5 6 7 7 7 7 7 7 6 7 7 7 6 7
22 22 22 23 24 21 19 20 20 19 20 22 18 16 18 20 23 18 9 5 3 4 8 9 13 7 2 7 9 13 16 17 23 24 22 23 28 33 25 14 13 17 12 8 11 9 7 5 2 3 3 5 6 6 6 5 6 6 6 5 5 5 5 5 4 5 9 7 7 9 9 9 8 6 5 7 8 8 8 7 7 7 7 6 7 7 6 7
22 22 22 23 24 22 19 20 21 19 20 22 20 18 16 12 12 11 6 4 2 3 2 4 8 3 1 8 6 13 19 20 22 23 24 26 30 31 22 13 13 16 12 8 9 9 6 3 4 5 5 7 8 9 8 6 7 8 6 5 5 5 6 5 5 7 10 7 6 8 9 9 9 8 8 8 9 9 8 7 6 6 6 6 6 7 7 7
22 23 23 23 24 22 20 20 20 21 21 23 22 18 12 9 6 5 3 3 4 5 2 3 4 2 4 6 12 18 18 17 18 21 26 30 30 26 18 13 10 9 11 10 9 8 6 5 6 8 9 10 11 11 12 11 9 8 6 6 7 5 6 5 5 6 7 5 6 8 8 8 8 8 7 7 8 9 9 8 8 7 7 7 7 7 8 8
23 24 24 23 24 23 21 21 21 22 22 25 25 11 4 9 7 5 5 4 9 10 4 6 7 6 4 4 16 21 14 10 9 13 26 32 29 22 14 13 12 7 9 11 9 6 6 7 8 11 12 12 12 12 12 12 11 8 5 4 5 5 6 2 5 5 3 1 5 6 7 9 9 8 7 7 7 8 8 9 9 9 8 8 9 10 9 8
24 24 24 24 23 22 21 21 21 22 21 22 19 4 2 8 4 5 10 5 10 11 6 6 9 7 5 1 14 18 12 10 6 5 18 24 21 16 12 13 12 9 11 10 8 7 7 8 10 12 10 8 10 11 11 11 11 8 4 4 4 4 4 0 5 5 3 1 4 4 6 8 8 8 8 7 8 7 7 9 9 10 11 10 10 10 10 8
23 24 26 24 23 23 21 21 21 22 20 18 13 3 4 8 4 8 11 1 3 6 6 6 6 5 2 2 12 16 11 11 10 8 16 16 13 13 13 14 12 11 13 11 9 9 7 7 11 12 9 9 10 10 11 10 9 6 4 4 4 4 5 2 1 2 3 2 4 4 5 7 8 9 9 10 11 10 10 12 12 11 12 12 11 10 10 11
23 24 25 24 24 23 21 21 20 18 17 16 11 5 7 10 12 15 9 2 1 2 3 6 5 5 5 3 10 15 10 8 11 15 18 14 11 12 13 14 14 11 11 14 15 11 6 4 8 11 11 13 11 10 11 8 6 7 6 5 4 5 6 3 2 3 3 3 3 3 4 6 8 9 10 10 12 14 13 13 13 12 11 11 10 9 9 11
24 24 24 25 23 23 23 19 15 13 14 14 10 8 9 12 16 17 7 2 3 1 2 4 4 6 8 4 6 10 9 6 8 16 18 16 15 13 10 11 10 11 15 18 16 10 6 8 9 11 12 13 12 10 12 8 5 7 7 6 6 5 5 4 5 3 1 2 2 0 3 4 5 6 7 3 4 9 9 11 13 12 9 8 9 9 9 9
25 24 24 25 23 25 22 11 10 14 12 10 11 12 11 11 16 16 6 2 3 2 3 5 3 7 11 6 3 4 8 7 5 13 16 13 13 9 8 9 6 10 16 15 10 6 6 9 10 12 12 13 12 10 11 9 5 5 6 9 8 5 4 2 2 3 0 1 2 2 2 3 5 6 8 6 5 7 5 8 10 9 8 8 9 10 10 10
25 24 24 24 25 26 16 8 14 15 8 9 15 17 13 13 16 13 5 1 4 2 7 5 3 8 11 10 11 5 6 8 7 12 16 8 7 4 5 12 9 10 12 9 6 6 9 12 11 12 13 11 10 9 10 12 7 4 2 8 9 5 2 1 3 1 2 1 1 3 3 3 6 6 9 8 9 11 10 10 9 8 9 10 10 10 11 11
25 24 24 23 27 25 10 9 19 12 7 13 19 18 15 14 14 9 4 3 4 4 6 5 4 9 8 10 16 5 3 12 10 12 14 2 2 2 6 13 14 13 13 11 7 5 10 14 12 12 11 9 9 8 9 13 8 2 2 4 6 4 3 1 1 1 2 3 2 4 3 3 5 5 7 8 10 12 13 13 11 11 11 11 11 11 11 10
25 24 24 23 26 21 6 8 18 13 13 19 20 18 15 11 7 4 2 3 2 3 3 6 6 8 7 8 12 6 1 5 5 7 11 4 2 1 4 8 12 15 14 12 6 2 6 10 12 12 8 8 9 7 9 11 6 2 1 4 5 2 2 3 2 1 2 1 3 4 4 3 4 4 5 5 8 10 10 9 10 10 9 9 10 10 9 9
26 24 23 23 22 16 5 6 13 16 19 22 22 22 18 11 4 3 5 4 2 2 2 5 6 8 13 10 8 9 6 1 2 8 7 2 2 3 1 2 4 9 6 4 3 1 1 2 7 9 6 7 8 5 5 8 7 5 4 6 6 4 5 4 2 3 1 3 4 6 8 4 3 5 5 4 5 5 4 5 4 4 5 4 3 2 2 4
25 23 23 22 18 14 9 6 9 16 22 26 28 24 15 7 2 5 7 1 3 4 4 5 7 11 17 14 7 10 9 2 7 12 6 3 2 1 1 1 2 4 3 4 3 2 2 5 5 3 1 4 6 2 2 7 10 7 5 5 5 3 3 2 1 2 1 3 2 4 7 7 5 6 4 3 3 0 3 4 4 5 5 4 4 4 4 5
24 22 23 20 15 14 10 7 11 16 22 27 24 16 8 4 3 5 4 2 2 5 7 7 9 11 15 15 9 10 8 4 9 15 11 8 7 6 8 8 6 6 5 6 4 2 5 5 2 2 2 2 7 5 4 5 8 5 4 6 5 3 2 1 2 2 3 3 3 2 1 5 7 7 6 6 6 4 4 4 5 5 3 2 1 1 3 4
23 23 23 17 14 14 9 9 13 14 21 25 14 5 5 5 6 6 4 3 0 1 6 9 10 12 15 15 10 9 7 5 10 15 14 12 9 10 10 9 10 6 5 10 9 5 3 2 1 3 1 4 8 9 6 5 7 7 7 6 4 4 3 2 4 2 2 2 3 1 3 3 5 4 9 13 12 8 6 6 5 6 5 4 3 2 2 3
22 21 20 15 13 12 9 12 14 14 21 21 8 5 7 5 6 9 7 3 2 0 6 11 12 13 16 14 12 12 6 4 11 14 13 13 9 9 9 9 10 3 4 10 6 6 8 1 4 9 5 6 10 9 8 7 7 7 5 5 4 4 4 4 4 3 3 1 2 1 1 3 3 2 5 9 8 4 2 6 6 5 4 3 1 2 4 4
22 20 18 15 13 11 11 13 14 17 19 11 3 7 9 5 5 9 7 2 1 2 5 9 13 12 12 12 12 14 7 2 11 13 11 13 10 10 11 10 12 6 6 10 4 5 10 3 7 8 3 9 11 6 9 9 6 5 4 5 5 4 3 3 2 3 4 2 1 3 3 4 4 6 9 6 5 4 3 5 6 4 4 3 2 3 4 3
23 19 16 13 12 13 13 10 10 17 16 6 3 6 7 5 5 6 7 5 3 4 4 7 12 9 8 8 8 13 8 3 10 11 8 12 12 13 13 10 14 13 10 11 5 6 9 2 5 6 1 10 12 7 11 10 6 4 5 6 3 1 3 3 0 1 3 1 3 4 4 5 3 7 9 9 8 6 6 6 5 6 6 6 4 3 3 2
21 16 12 11 12 15 15 9 10 14 10 5 5 5 5 4 3 3 7 8 6 7 5 5 8 8 7 6 6 12 9 4 8 9 5 9 9 12 15 10 14 15 10 9 4 4 6 2 1 5 5 9 7 6 9 8 6 6 6 6 3 5 3 2 1 1 2 3 3 4 6 4 2 5 5 8 9 7 7 7 6 6 6 7 5 4 4 4
18 13 9 10 15 17 15 13 13 10 4 3 6 6 4 3 3 1 5 9 8 6 6 4 4 6 6 6 7 13 12 6 7 6 5 8 5 9 15 10 12 16 12 9 6 3 7 4 3 2 6 7 3 5 8 6 3 4 5 6 4 1 1 3 2 2 4 4 4 4 7 5 6 5 2 5 10 9 9 7 7 7 7 6 6 6 5 4
15 9 4 11 18 18 18 15 11 6 2 4 6 5 4 3 5 5 3 7 9 7 6 5 3 3 4 5 7 12 14 10 9 5 4 6 3 8 17 11 11 18 14 9 7 5 7 6 1 3 2 5 4 4 9 7 1 1 3 6 4 2 2 4 3 2 3 4 4 3 3 4 7 8 7 8 10 11 11 8 8 8 8 7 6 6 6 5
9 4 2 15 22 20 22 15 6 4 4 5 6 5 4 4 6 7 8 6 5 5 6 7 5 4 4 4 4 7 8 7 9 7 4 6 4 6 15 13 11 18 17 11 7 7 6 4 5 2 1 5 7 6 9 11 7 4 6 8 5 2 2 1 2 2 2 3 3 3 4 5 5 6 10 11 9 9 9 8 8 8 9 8 8 7 6 6
5 2 4 21 28 25 21 10 2 5 5 5 7 6 6 4 3 7 10 8 4 2 3 6 7 5 5 6 4 4 4 3 6 8 5 8 7 5 12 15 13 16 16 10 6 7 5 4 7 5 5 7 7 4 3 6 9 9 7 8 8 5 3 2 3 4 2 2 2 2 4 7 4 4 8 9 7 7 9 10 9 9 10 10 8 8 7 7
4 2 8 26 34 27 16 4 3 5 4 5 7 6 6 4 3 6 8 7 5 2 3 4 6 6 4 5 5 6 6 2 4 6 3 8 13 9 12 19 17 15 15 10 9 6 3 4 6 6 5 5 2 0 3 2 5 7 4 5 7 6 5 6 5 4 4 3 2 1 3 7 4 3 5 6 6 8 9 11 10 9 9 9 8 8 7 7
4 3 12 31 40 27 11 4 6 5 4 5 6 7 6 4 4 5 5 7 7 4 1 3 5 7 5 3 3 6 7 4 5 7 4 5 12 10 11 19 19 16 14 11 9 4 3 4 6 4 2 2 3 2 3 5 2 5 7 7 8 9 9 6 2 3 5 5 4 3 5 7 4 2 4 5 7 8 7 9 10 8 7 8 8 8 8 7
5 3 7 26 38 27 9 5 8 7 7 8 7 7 6 4 5 6 5 6 6 5 5 4 4 6 5 4 4 6 8 5 6 10 7 4 7 5 9 18 19 15 14 12 10 6 3 5 7 6 3 1 2 0 2 2 4 7 9 9 9 11 10 5 1 1 2 6 7 5 7 8 4 1 5 6 7 7 6 6 7 7 7 7 8 8 7 7
5 3 2 11 20 14 4 5 8 8 9 10 8 9 8 6 7 8 7 6 6 6 7 7 7 7 5 5 5 6 8 6 4 7 8 6 4 2 9 19 18 13 13 12 12 9 6 6 9 9 10 9 8 7 7 7 6 3 5 10 12 12 12 9 4 1 4 8 7 6 10 8 2 3 4 6 7 7 7 6 5 6 7 8 8 7 7 7
5 3 2 4 4 2 1 3 6 8 9 9 7 9 11 9 7 8 9 8 7 7 6 6 8 9 7 7 7 6 8 8 3 3 5 7 3 1 8 19 20 18 17 11 8 6 4 5 10 11 12 13 11 8 7 9 9 8 11 15 14 12 12 10 5 6 10 6 5 12 16 8 3 5 6 6 7 8 7 7 7 6 7 8 8 8 7 7
3 3 5 5 2 2 2 2 4 6 8 9 7 7 12 13 9 7 9 9 7 7 7 7 8 10 10 10 7 6 8 9 6 4 3 5 3 3 6 16 19 22 19 10 5 4 3 6 13 14 14 11 7 7 12 15 16 17 17 17 16 15 14 12 12 16 11 4 6 18 17 12 8 7 8 8 8 8 8 9 8 8 8 7 7 7 7 7
2 2 5 6 4 4 5 5 6 6 9 12 9 8 13 15 12 9 8 9 9 8 7 7 9 12 12 11 8 6 8 8 8 7 5 4 3 3 5 12 15 17 15 8 6 4 3 7 12 13 13 8 6 9 13 14 14 15 16 19 19 18 18 17 19 20 11 7 16 15 13 16 14 8 9 10 9 9 9 9 9 8 8 7 7 8 8 7
2 0 3 5 4 5 7 9 9 8 11 12 10 10 14 16 16 12 7 7 9 11 10 9 9 12 14 13 10 8 8 8 7 7 6 5 5 3 5 7 8 9 11 7 5 3 2 6 8 8 10 8 5 9 13 12 11 12 15 19 18 19 22 22 22 20 13 16 23 12 8 15 14 9 10 9 8 8 7 7 8 8 8 9 9 9 8 8
3 1 3 4 4 5 7 9 9 8 9 11 10 10 12 15 17 14 10 9 8 9 12 14 12 12 15 16 13 12 12 11 10 10 9 9 8 6 6 6 5 8 10 7 4 4 4 6 6 6 8 7 5 8 11 13 13 13 16 18 17 17 19 21 24 19 15 21 24 12 10 13 7 7 9 8 8 8 7 7 8 8 9 10 9 9 8 8
4 1 2 3 4 5 5 7 8 7 7 8 8 8 10 14 15 13 12 13 12 10 11 16 17 13 12 16 17 16 14 13 13 14 13 12 10 7 4 4 5 9 9 7 7 7 7 6 6 6 7 8 9 9 9 11 12 12 14 16 19 19 20 23 25 19 16 21 19 12 13 12 5 6 6 8 9 9 9 9 8 8 10 10 9 9 9 9
5 2 3 2 4 6 6 5 7 8 7 8 10 11 11 12 13 13 10 10 15 16 12 15 17 13 11 16 19 19 17 15 16 15 12 12 11 7 2 4 6 10 11 9 7 7 9 8 6 7 8 9 10 9 8 8 7 8 14 21 26 26 24 23 20 17 18 18 14 13 14 8 7 8 7 7 8 10 10 9 9 10 11 10 9 10 10 9
Wind_Direction
227 225 221 220 220 220 221 218 215 216 217 220 216 205 205 209 209 207 205 205 209 213 213 211 214 212 206 204 200 199 202 197 196 200 209 214 202 204 210 211 207 189 187 189 192 195 196 214 211 198 191 158 161 147 165 210 134 219 184 202 238 239 272 340 24 34 105 106 96 107 156 222 133 146 135 133 231 162 151 154 103 81 79 81 106 124 135 145
225 224 218 217 217 214 214 213 210 211 212 214 216 211 205 206 208 204 202 203 204 208 210 207 210 210 204 201 196 196 200 199 206 213 214 213 203 207 209 205 199 182 178 188 195 194 193 204 191 190 206 172 151 158 183 181 190 229 224 229 230 187 262 354 41 34 49 85 96 88 35 329 101 137 138 173 213 179 182 177 146 136 108 102 122 129 138 145
223 223 216 213 212 206 204 209 207 208 207 204 211 213 207 204 207 204 200 199 199 203 205 205 205 204 201 198 194 193 191 201 221 222 216 211 206 208 205 201 194 178 176 186 196 197 198 193 184 190 209 214 180 162 188 170 184 212 197 245 234 130 108 35 54 53 36 42 82 89 51 339 58 104 147 218 234 189 199 191 167 176 152 144 142 140 146 153
219 223 216 209 206 199 199 208 208 207 204 201 206 211 210 208 206 204 200 195 195 199 202 203 201 199 199 195 193 185 170 209 232 213 212 207 204 204 200 197 186 177 177 183 202 203 201 190 184 199 202 221 196 167 186 165 166 156 175 232 267 75 86 63 64 57 36 16 41 88 125 259 62 46 184 230 256 219 222 197 174 192 167 155 157 153 155 161
213 223 219 207 200 198 202 204 204 204 198 199 207 209 211 210 206 201 199 196 193 196 200 202 202 198 194 189 187 171 151 231 203 195 208 203 201 200 195 193 179 174 176 173 203 203 203 193 182 204 211 223 202 177 203 187 185 181 208 232 236 43 73 82 72 48 29 359 331 218 203 347 19 328 238 239 258 217 147 63 97 141 152 156 161 157 160 167
210 217 220 208 195 193 199 200 200 202 196 199 206 211 217 215 209 201 198 197 193 195 199 200 200 195 188 184 179 167 165 218 147 188 203 198 198 195 191 191 177 174 174 168 189 191 198 190 179 194 195 228 208 195 218 195 181 209 223 212 179 129 100 85 79 52 9 312 278 347 1 337 305 266 238 226 247 239 76 67 50 34 125 153 158 156 164 173
209 212 216 212 197 189 193 198 201 202 202 210 210 214 225 222 219 213 198 196 196 195 197 199 197 192 183 175 171 176 198 214 97 181 197 193 194 190 188 187 178 177 173 173 185 181 189 181 186 196 184 222 215 208 218 169 156 224 248 203 175 144 129 116 104 125 346 305 337 31 352 285 257 268 330 245 257 281 16 96 98 62 126 149 156 162 172 178
208 210 210 213 204 190 190 195 196 199 201 210 218 219 227 228 233 240 205 197 200 198 198 199 196 190 178 168 164 184 215 202 115 161 187 186 186 184 183 180 177 178 170 179 186 177 188 186 192 196 193 212 211 205 173 132 168 220 253 212 141 138 136 137 137 154 183 220 242 78 248 248 237 201 23 260 256 272 277 123 123 116 144 154 163 170 174 179
204 208 202 207 206 189 187 193 191 194 196 201 213 219 230 231 233 247 220 198 199 199 199 198 196 190 178 168 164 189 202 189 133 153 178 179 180 180 179 175 174 173 168 180 185 177 183 185 196 203 218 217 206 188 138 163 196 202 237 210 127 172 157 148 169 173 185 213 197 218 254 255 225 97 259 247 237 240 225 146 138 157 179 170 168 175 176 180
198 201 194 196 203 191 186 192 187 186 188 192 204 213 226 229 232 240 233 208 196 194 196 196 192 184 176 172 178 192 186 179 159 157 175 178 177 175 174 174 171 169 166 163 169 173 172 192 238 241 299 247 187 160 136 186 226 202 238 188 131 206 168 163 202 185 180 226 221 237 271 273 185 161 246 246 204 200 174 154 162 171 200 191 175 181 181 183
192 193 188 190 196 193 189 188 184 178 176 183 197 209 217 224 232 233 238 238 199 193 197 196 189 178 173 177 189 185 157 170 186 169 175 180 177 172 172 171 170 169 160 144 146 128 108 340 318 300 265 193 163 177 164 155 114 21 293 112 180 228 197 197 215 197 176 212 213 223 285 282 253 206 228 235 153 146 149 175 187 186 206 200 190 186 183 189
190 189 186 189 192 193 192 185 184 183 178 182 195 207 215 219 228 228 236 246 228 207 198 194 190 179 172 184 204 174 140 163 187 164 171 179 175 172 170 168 168 169 159 142 130 120 116 339 308 259 216 165 151 193 181 125 130 147 113 234 225 216 221 217 212 199 186 189 168 128 308 268 239 228 224 223 206 169 175 195 190 194 205 200 198 188 182 195
186 186 185 187 189 193 192 185 184 185 183 184 190 201 213 220 224 222 228 235 242 229 199 191 185 175 169 186 205 177 138 149 171 156 163 173 168 166 168 167 165 166 162 148 130 118 132 335 305 261 222 199 163 187 70 129 170 202 198 243 243 218 232 217 202 196 189 176 140 120 292 248 238 244 225 215 208 185 195 210 197 194 200 200 199 189 185 193
180 183 184 184 187 191 189 187 188 185 182 179 181 194 207 215 221 218 222 226 223 234 207 193 181 172 173 184 195 184 150 139 158 153 156 161 154 152 161 166 164 166 165 155 146 130 137 319 308 275 235 237 79 86 106 144 177 209 201 218 232 236 256 203 186 186 186 167 142 140 251 247 258 275 238 202 192 178 199 225 212 195 197 202 196 190 191 191
178 179 182 182 184 187 185 186 187 184 178 168 174 192 203 209 216 214 218 223 214 232 218 192 178 168 181 220 190 184 165 146 156 156 157 160 151 144 153 157 157 161 158 155 156 151 166 293 309 276 204 101 126 184 166 151 178 213 209 199 204 219 281 169 167 179 181 162 159 160 232 251 247 254 258 189 161 173 208 229 224 208 197 196 196 193 193 193
178 177 177 178 181 184 182 181 182 178 172 166 176 191 199 207 213 209 213 221 209 211 214 188 176 168 168 200 170 170 174 167 163 158 160 166 159 145 144 144 141 148 149 150 157 168 200 254 308 271 236 131 176 196 165 184 192 210 224 221 199 195 209 163 161 186 170 139 177 189 231 257 222 227 239 190 159 186 214 228 235 232 209 191 189 193 196 198
176 174 172 175 179 182 177 175 178 176 172 167 168 178 191 202 208 207 204 214 206 197 211 193 175 176 163 151 154 162 181 173 162 157 158 165 157 143 137 135 136 143 141 153 172 187 201 207 216 268 240 177 196 194 185 204 191 194 214 228 234 210 204 172 161 198 165 146 186 201 235 253 231 209 197 171 179 204 217 226 236 242 233 203 184 188 196 199
174 172 171 173 177 179 176 171 173 172 168 166 155 155 176 190 197 202 199 203 207 180 219 207 176 187 218 174 164 161 171 165 158 155 153 155 151 142 134 129 141 142 137 154 177 187 187 184 161 160 195 199 200 197 200 204 188 199 202 213 255 244 227 197 155 173 171 178 202 199 225 246 250 243 214 194 195 209 215 215 223 228 235 223 188 185 195 200
171 170 170 172 175 177 173 168 169 165 157 159 149 136 150 161 171 191 188 169 187 177 221 216 186 192 147 183 166 146 160 160 155 157 154 150 147 141 130 132 146 145 149 163 177 185 171 152 171 181 192 195 198 200 209 218 206 211 203 198 232 243 241 216 146 158 176 188 212 210 227 241 243 241 231 218 204 209 217 212 217 216 224 232 204 186 196 207
167 166 168 169 174 175 167 162 164 160 152 150 142 128 135 150 152 185 178 143 218 229 324 328 239 356 64 147 144 142 152 155 156 164 161 150 144 141 134 144 159 158 165 162 167 185 174 165 187 194 190 187 197 205 213 229 237 235 214 201 222 234 248 221 143 166 184 182 207 219 237 245 247 247 237 229 220 218 219 216 222 217 211 219 215 202 199 207
163 163 165 165 171 174 164 156 155 157 157 152 147 138 152 166 174 187 170 200 233 233 270 309 303 336 7 148 150 146 141 146 161 171 164 154 148 148 147 156 165 180 178 155 146 164 183 193 192 190 191 185 193 210 221 230 243 254 237 215 228 232 258 263 124 155 161 168 228 233 255 254 252 256 249 242 239 231 220 216 219 219 217 213 212 213 207 205
160 159 159 160 166 171 167 157 152 156 158 157 156 168 182 161 195 188 168 206 238 223 229 278 303 323 340 81 155 148 130 143 163 194 177 167 161 160 158 165 169 174 173 154 141 162 196 211 190 183 196 198 199 212 224 232 238 246 235 222 231 221 239 5 107 140 127 91 258 259 272 267 264 265 257 250 250 243 227 221 217 213 218 220 213 213 211 208
155 154 154 158 160 166 169 158 153 156 158 165 171 171 135 137 131 161 163 199 267 209 215 235 261 278 297 129 160 155 142 153 158 195 198 183 174 169 161 168 173 168 171 169 164 177 196 207 190 178 186 210 211 207 218 233 235 237 229 219 227 215 212 189 90 165 152 186 263 284 285 277 276 271 259 247 243 242 235 231 227 214 214 218 215 211 207 204
154 154 156 158 157 161 166 160 154 155 160 170 175 160 134 125 130 149 151 12 294 168 186 201 208 233 232 191 179 174 164 164 162 182 195 186 166 162 164 171 171 171 181 179 177 189 184 155 188 190 188 204 205 199 213 222 224 235 232 217 223 229 220 200 169 191 192 208 236 308 311 274 254 248 249 240 227 231 233 233 236 227 216 214 218 220 212 206
155 156 157 157 156 159 161 160 157 155 160 169 173 166 151 133 140 153 144 16 242 205 86 173 178 209 204 201 213 185 159 172 179 180 188 188 173 160 165 174 172 179 185 183 185 200 186 146 177 201 201 204 199 198 207 202 210 233 223 217 241 260 254 213 162 140 330 272 189 269 300 273 266 254 260 271 229 235 230 222 233 234 218 207 216 227 227 223
157 156 157 156 156 155 154 158 171 165 160 169 172 163 157 149 148 156 146 22 248 223 128 155 156 183 182 177 199 164 163 182 174 172 183 200 192 169 166 173 175 187 181 182 191 203 188 161 172 199 203 200 201 204 197 188 208 238 205 200 226 270 309 293 114 100 55 265 198 187 214 273 309 293 284 314 310 282 258 223 225 226 215 206 210 220 226 230
159 157 157 158 157 155 153 159 169 169 166 168 166 155 149 153 153 155 155 244 242 166 139 161 161 168 173 166 161 160 182 156 110 170 189 220 220 181 178 174 170 185 175 175 197 187 177 172 176 199 202 197 204 203 181 180 201 261 210 177 193 228 277 330 33 58 241 341 266 203 175 254 282 267 260 270 273 271 262 249 238 225 218 210 211 217 221 227
161 160 160 162 160 158 155 151 158 170 194 171 160 156 153 152 153 156 172 206 194 125 140 167 150 156 160 157 164 186 195 144 138 177 177 192 277 173 200 185 173 177 173 176 195 171 171 181 183 193 199 194 198 200 178 179 190 270 300 150 163 203 222 179 100 260 307 21 290 217 169 243 265 256 245 234 240 252 249 245 242 232 221 210 213 220 220 222
163 163 163 163 162 165 159 142 159 177 187 170 159 157 154 144 134 127 190 212 140 88 153 165 155 156 144 147 172 198 232 151 156 156 142 109 13 96 204 200 182 175 174 178 180 130 169 185 182 185 201 194 188 197 185 180 184 213 192 104 100 111 50 46 88 70 7 345 240 210 180 236 266 258 245 222 227 239 235 235 235 224 212 200 204 214 219 216
164 164 165 164 165 173 163 132 159 167 168 166 158 151 142 131 108 121 186 213 97 101 153 157 170 162 148 156 185 190 192 212 102 123 129 129 28 17 301 243 181 165 156 139 116 60 91 146 176 185 206 188 175 193 180 163 151 132 118 90 75 67 62 45 47 68 19 270 235 203 197 212 274 256 230 215 239 237 201 209 210 162 135 131 150 166 187 173
163 164 168 166 164 168 159 137 144 152 163 165 154 145 134 123 149 178 182 214 49 151 156 146 166 158 156 167 186 186 184 153 140 146 141 148 120 56 182 110 62 97 92 75 50 325 127 134 177 182 227 164 142 102 76 128 137 124 119 115 92 71 73 55 58 99 203 254 267 222 197 192 225 253 227 199 251 349 118 169 158 120 94 69 57 65 82 105
162 166 168 165 159 162 163 151 146 154 167 167 155 144 136 132 199 206 180 70 48 175 161 149 166 162 162 172 183 187 181 152 161 161 157 169 174 173 180 178 154 136 157 159 153 205 161 154 160 56 357 166 132 110 74 122 145 137 147 146 125 121 113 169 191 185 220 232 267 294 144 204 230 249 255 262 259 219 191 194 155 128 103 64 63 154 139 137
162 165 165 161 155 161 162 146 153 160 159 160 157 141 151 169 190 200 186 152 83 210 154 148 166 167 161 171 187 191 184 174 174 167 162 170 180 183 192 194 175 160 170 166 157 156 151 0 14 122 211 202 165 158 152 159 168 168 169 163 156 150 149 204 195 212 242 246 281 349 61 278 265 253 242 250 261 247 208 193 155 141 159 178 211 237 207 193
162 163 164 161 154 160 160 149 155 157 148 150 157 151 165 186 181 184 198 197 20 269 167 153 160 169 169 175 182 180 187 199 177 170 168 172 180 186 190 203 203 194 111 153 162 157 159 196 191 173 171 184 184 174 153 143 158 178 178 170 190 179 167 187 180 198 206 91 319 266 135 211 209 279 251 237 257 282 190 166 153 150 167 163 179 289 280 258
161 163 162 161 164 165 159 151 153 152 145 146 159 161 172 185 174 186 198 196 59 195 190 165 156 166 180 179 174 170 167 198 182 176 174 176 180 184 182 189 200 199 140 157 178 170 171 187 182 178 169 170 175 161 141 133 146 195 180 170 222 231 162 154 161 171 145 90 266 220 240 232 214 286 289 261 251 255 212 171 153 166 176 157 193 238 243 244
159 163 163 165 175 174 166 156 147 145 145 157 189 174 186 189 180 188 177 173 187 163 174 181 162 163 185 175 171 173 151 112 184 186 184 182 184 185 184 183 188 195 183 166 158 175 179 182 171 169 146 181 178 157 157 156 148 181 194 187 209 347 102 123 55 90 96 278 240 185 246 282 285 282 268 243 243 236 212 198 181 189 173 159 177 173 159 154
157 164 167 171 178 177 172 158 135 134 137 171 199 192 194 202 209 180 167 183 187 144 153 200 174 167 180 167 173 178 153 108 189 195 185 184 191 186 183 185 186 196 207 184 174 185 163 75 226 168 149 189 190 129 159 178 147 153 194 186 114 32 26 104 100 63 111 247 251 186 219 247 227 266 254 213 224 230 212 199 183 176 153 143 156 152 156 170
151 159 170 181 179 174 169 156 141 134 125 174 213 219 186 200 269 231 169 188 192 165 170 211 187 168 173 168 174 176 164 155 188 196 180 178 196 186 180 184 188 196 212 198 179 163 144 107 325 228 157 184 196 123 164 202 195 170 179 164 139 81 235 164 165 179 175 218 269 224 216 219 205 227 261 200 204 213 217 199 169 164 152 147 158 167 177 174
143 147 176 183 177 172 165 154 140 141 159 182 213 225 175 187 248 262 244 202 200 199 192 199 196 173 181 175 167 171 173 175 176 172 182 183 182 185 184 184 188 195 208 204 177 157 157 141 122 270 203 174 185 176 182 192 241 328 170 174 194 201 171 175 175 148 155 196 256 257 218 227 219 209 217 216 198 198 208 192 168 164 155 158 171 178 183 176
142 136 172 170 169 167 159 146 125 154 186 197 212 223 196 200 219 237 258 239 207 212 213 211 200 174 180 173 153 166 174 175 173 169 184 186 170 185 191 189 185 190 203 216 189 154 159 151 132 160 244 176 188 206 196 185 176 173 179 186 197 186 128 153 183 168 144 170 224 254 249 253 244 201 205 211 195 189 188 161 157 163 156 166 178 179 183 183
145 140 157 161 161 156 148 137 126 170 186 209 214 223 221 223 209 216 239 248 249 280 257 233 216 193 174 167 163 165 154 148 178 179 181 185 184 194 197 196 189 185 194 214 205 170 165 156 138 145 184 189 193 210 201 182 182 184 184 183 185 177 135 144 205 204 180 189 203 217 259 267 254 176 190 201 185 171 159 144 155 173 168 170 176 178 183 185
154 162 145 158 161 154 144 148 181 173 202 212 208 217 217 230 232 208 217 227 229 255 313 277 234 214 192 173 168 157 153 151 177 185 194 194 201 206 193 193 190 182 187 195 196 184 120 112 139 145 175 186 178 4 25 53 178 192 207 192 181 182 175 179 202 194 176 219 240 220 277 273 254 153 157 177 161 145 147 150 161 175 169 165 171 178 184 190
164 143 141 159 163 155 145 187 182 180 220 215 216 222 214 232 244 221 211 209 203 183 176 291 260 236 216 176 158 152 162 172 175 193 233 217 212 215 186 187 187 180 186 194 192 183 69 102 133 104 77 19 18 4 9 33 106 191 217 205 184 197 201 188 176 160 172 204 209 207 250 258 271 13 79 118 132 131 138 147 154 163 158 155 169 180 187 201
156 122 137 165 168 160 155 189 178 188 209 207 220 223 220 246 249 235 222 206 199 186 189 215 257 258 225 169 163 163 171 184 180 193 219 238 223 208 174 187 192 186 190 191 179 186 193 150 131 117 136 135 29 269 224 209 195 204 212 204 199 202 197 196 266 116 183 212 184 181 246 247 238 81 102 115 117 122 135 144 142 152 159 163 177 187 191 201
150 129 86 173 175 169 183 195 178 191 200 198 208 210 212 230 233 232 235 223 210 204 202 202 212 239 235 185 178 171 176 195 190 187 208 222 221 189 177 186 194 204 209 195 175 176 187 169 157 161 169 176 187 196 194 194 197 201 189 194 206 203 189 197 219 147 230 224 177 183 244 247 151 125 148 134 129 137 153 161 150 156 172 177 186 192 192 198
155 157 139 172 190 190 263 225 192 199 195 188 203 211 212 224 230 222 228 238 231 215 215 209 201 218 231 212 203 190 185 199 189 155 205 215 212 253 191 182 188 206 212 204 186 166 155 188 192 190 191 193 192 181 147 141 163 189 189 191 200 199 191 187 181 212 223 211 183 218 233 236 178 188 197 171 162 168 168 167 168 179 191 191 190 194 196 201
161 174 166 165 179 179 220 249 214 208 193 183 192 203 206 220 232 211 204 221 233 223 224 217 200 208 216 208 210 206 188 195 195 169 194 224 253 298 204 182 191 202 200 199 208 179 150 197 201 203 211 203 162 139 145 152 178 194 189 189 192 192 195 191 198 216 206 142 230 232 224 230 229 195 193 197 183 178 177 177 180 187 195 197 190 193 206 214
162 184 176 171 174 176 189 204 201 205 196 187 191 198 201 213 222 211 194 206 219 219 221 219 207 213 217 201 192 201 191 192 203 196 190 207 245 291 216 191 193 191 181 184 209 183 154 206 202 202 212 201 131 143 161 165 185 190 183 190 191 187 197 204 215 219 190 182 237 226 193 217 228 196 197 207 186 181 187 185 184 182 183 185 185 195 210 217
142 17 168 169 186 182 182 189 190 199 201 196 197 200 201 208 215 215 206 204 214 211 213 223 211 210 222 214 198 202 197 188 198 199 185 180 192 217 208 196 195 176 164 175 202 177 168 214 205 194 206 207 165 159 164 164 176 180 185 192 189 189 200 210 223 221 199 221 239 224 190 226 227 200 206 203 182 188 181 165 168 169 173 181 190 203 213 214
163 193 151 160 205 200 189 187 185 198 209 205 207 207 207 210 210 212 213 212 214 203 205 222 220 203 214 220 215 215 208 199 204 203 188 179 187 204 205 193 179 175 176 178 183 184 197 206 194 181 199 214 194 173 170 168 170 177 186 188 185 192 203 216 229 223 208 229 240 238 256 258 228 183 197 186 178 182 158 154 167 171 181 189 196 211 218 216
153 105 124 150 206 206 195 184 179 195 212 209 212 210 213 216 210 208 215 215 219 215 200 212 220 211 209 217 222 226 218 211 216 211 196 189 191 194 210 208 169 168 181 182 176 183 194 197 184 175 198 214 200 185 176 167 167 176 184 183 185 192 200 213 224 217 208 225 233 234 255 256 187 152 181 182 181 178 168 171 179 190 196 194 197 209 214 214
150 64 85 138 205 204 204 197 185 195 208 210 216 216 215 220 214 212 217 212 216 223 215 211 214 212 210 214 218 224 223 220 227 224 204 197 199 186 201 243 198 179 181 180 180 185 189 193 179 166 200 216 191 170 156 141 151 190 194 188 190 197 203 211 220 219 214 219 217 216 232 227 149 158 189 194 184 181 184 186 192 205 207 199 199 204 207 212